SWA2504 KRDU-KPHL

Flight info

Callsign SWA2504
Flight time 0h 45m
Altitude 30000
Route OXFRD5 CARML BBDOL PAATS4
Aircraft B738/M-SDE2E3FGHIRWXY/LB1

Departure

Time 2026-05-04 12:44
Airport Raleigh-Durham International Airport (KRDU)

Arrival

Time 2026-05-04 13:30
Airport Philadelphia International Airport (KPHL)
Time Latitude Longitude Altitude Speed Heading
2026-05-04 12:30 35.87840 -78.79304 389 ft 0 kts 142°
2026-05-04 12:34 35.87842 -78.79305 389 ft 2 kts 142°
2026-05-04 12:35 35.87855 -78.79317 389 ft 2 kts 135°
2026-05-04 12:35 35.87864 -78.79335 389 ft 5 kts 108°
2026-05-04 12:35 35.87865 -78.79373 388 ft 5 kts 71°
2026-05-04 12:35 35.87850 -78.79402 388 ft 0 kts 44°
2026-05-04 12:38 35.87881 -78.79396 389 ft 10 kts 358°
2026-05-04 12:38 35.87932 -78.79388 390 ft 9 kts 20°
2026-05-04 12:39 35.87990 -78.79334 390 ft 8 kts 44°
2026-05-04 12:39 35.88032 -78.79283 391 ft 10 kts 45°
2026-05-04 12:39 35.88085 -78.79216 392 ft 11 kts 45°
2026-05-04 12:39 35.88138 -78.79150 392 ft 11 kts 45°
2026-05-04 12:40 35.88192 -78.79084 392 ft 11 kts 44°
2026-05-04 12:40 35.88229 -78.79039 391 ft 11 kts 44°
2026-05-04 12:40 35.88284 -78.78971 393 ft 11 kts 45°
2026-05-04 12:40 35.88338 -78.78905 389 ft 11 kts 45°
2026-05-04 12:41 35.88407 -78.78820 393 ft 10 kts 45°
2026-05-04 12:41 35.88457 -78.78759 397 ft 10 kts 44°
2026-05-04 12:41 35.88506 -78.78700 400 ft 10 kts 44°
2026-05-04 12:41 35.88553 -78.78641 399 ft 10 kts 45°
2026-05-04 12:42 35.88600 -78.78585 403 ft 9 kts 45°
2026-05-04 12:42 35.88630 -78.78548 402 ft 9 kts 44°
2026-05-04 12:42 35.88675 -78.78494 405 ft 9 kts 44°
2026-05-04 12:42 35.88722 -78.78450 406 ft 9 kts 14°
2026-05-04 12:43 35.88761 -78.78512 407 ft 9 kts 266°
2026-05-04 12:43 35.88696 -78.78649 404 ft 35 kts 222°
2026-05-04 12:43 35.88494 -78.78903 396 ft 90 kts 225°
2026-05-04 12:43 35.87877 -78.79669 401 ft 158 kts 227°
2026-05-04 12:44 35.87052 -78.80687 994 ft 179 kts 226°
2026-05-04 12:44 35.86097 -78.81831 1650 ft 196 kts 225°
2026-05-04 12:44 35.85319 -78.83088 2685 ft 187 kts 252°
2026-05-04 12:44 35.85383 -78.84771 2981 ft 218 kts 292°
2026-05-04 12:45 35.86498 -78.86116 3626 ft 239 kts 332°
2026-05-04 12:45 35.88165 -78.86457 4474 ft 249 kts 357°
2026-05-04 12:45 35.89937 -78.86006 5006 ft 274 kts 16°
2026-05-04 12:45 35.91724 -78.85130 5786 ft 283 kts 19°
2026-05-04 12:46 35.93544 -78.84160 6736 ft 286 kts 20°
2026-05-04 12:46 35.95376 -78.83168 7644 ft 289 kts 19°
2026-05-04 12:46 35.97229 -78.82179 8566 ft 291 kts 19°
2026-05-04 12:46 35.99100 -78.81189 9484 ft 294 kts 18°
2026-05-04 12:47 36.00992 -78.80196 10360 ft 297 kts 17°
2026-05-04 12:47 36.02919 -78.79192 11040 ft 307 kts 17°
2026-05-04 12:47 36.04978 -78.78133 11246 ft 334 kts 17°
2026-05-04 12:47 36.07195 -78.76994 11510 ft 355 kts 17°
2026-05-04 12:48 36.15401 -78.72736 14175 ft 371 kts 16°
2026-05-04 12:48 36.25100 -78.67710 16969 ft 385 kts 16°
2026-05-04 12:48 36.35059 -78.62534 19473 ft 400 kts 16°
2026-05-04 12:48 36.42068 -78.58875 21036 ft 410 kts 17°
2026-05-04 12:49 36.44666 -78.57338 21563 ft 417 kts 20°
2026-05-04 12:49 36.52892 -78.51940 23284 ft 428 kts 21°
2026-05-04 12:49 36.63562 -78.44881 25116 ft 438 kts 20°
2026-05-04 12:49 36.74436 -78.37764 26951 ft 442 kts 19°
2026-05-04 12:50 36.82927 -78.32185 28839 ft 435 kts 18°
2026-05-04 12:50 36.85595 -78.30429 29444 ft 432 kts 18°
2026-05-04 12:50 36.88217 -78.28704 29957 ft 432 kts 18°
2026-05-04 12:50 36.90888 -78.26950 30099 ft 437 kts 18°
2026-05-04 12:51 36.93958 -78.24934 30114 ft 439 kts 19°
2026-05-04 12:51 37.00456 -78.18816 30089 ft 447 kts 32°
2026-05-04 12:52 37.19232 -77.98541 30115 ft 444 kts 32°
2026-05-04 12:52 37.37071 -77.79386 30103 ft 445 kts 32°
2026-05-04 12:53 37.55765 -77.59151 30108 ft 447 kts 33°
2026-05-04 12:53 37.67707 -77.46152 30108 ft 449 kts 34°
2026-05-04 12:54 37.72417 -77.41006 30096 ft 446 kts 34°
2026-05-04 12:54 37.77100 -77.35881 30090 ft 444 kts 34°
2026-05-04 12:55 37.81732 -77.30805 30094 ft 443 kts 34°
2026-05-04 12:55 37.86391 -77.25694 30091 ft 444 kts 34°
2026-05-04 12:56 37.91059 -77.20564 30088 ft 445 kts 34°
2026-05-04 12:56 37.95729 -77.15420 30093 ft 445 kts 34°
2026-05-04 12:57 38.00369 -77.10301 30083 ft 445 kts 34°
2026-05-04 12:57 38.05036 -77.05142 30089 ft 445 kts 34°
2026-05-04 12:58 38.09696 -76.99982 30077 ft 444 kts 34°
2026-05-04 12:58 38.14343 -76.94827 30074 ft 443 kts 34°
2026-05-04 12:59 38.18983 -76.89672 30071 ft 443 kts 34°
2026-05-04 12:59 38.23588 -76.84548 30072 ft 443 kts 34°
2026-05-04 13:00 38.28223 -76.79380 30072 ft 443 kts 35°
2026-05-04 13:00 38.32857 -76.74205 30058 ft 443 kts 35°
2026-05-04 13:01 38.37484 -76.69026 30072 ft 442 kts 35°
2026-05-04 13:01 38.42104 -76.63848 30066 ft 442 kts 35°
2026-05-04 13:02 38.46693 -76.58695 30070 ft 443 kts 35°
2026-05-04 13:02 38.51317 -76.53494 30068 ft 443 kts 35°
2026-05-04 13:03 38.55949 -76.48275 29915 ft 445 kts 36°
2026-05-04 13:03 38.58283 -76.45644 29292 ft 448 kts 36°
2026-05-04 13:03 38.60574 -76.43055 29226 ft 446 kts 36°
2026-05-04 13:03 38.62933 -76.40393 28995 ft 462 kts 36°
2026-05-04 13:04 38.65390 -76.37626 28423 ft 475 kts 36°
2026-05-04 13:04 38.67844 -76.34845 27872 ft 467 kts 37°
2026-05-04 13:04 38.70255 -76.32101 27370 ft 460 kts 37°
2026-05-04 13:04 38.72622 -76.29404 26958 ft 451 kts 37°
2026-05-04 13:05 38.74950 -76.26753 26511 ft 444 kts 37°
2026-05-04 13:05 38.77242 -76.24144 26076 ft 438 kts 37°
2026-05-04 13:05 38.79503 -76.21570 25648 ft 432 kts 37°
2026-05-04 13:05 38.81703 -76.19065 25236 ft 426 kts 37°
2026-05-04 13:06 38.83906 -76.16556 24814 ft 421 kts 37°
2026-05-04 13:06 38.86082 -76.14075 24431 ft 416 kts 37°
2026-05-04 13:06 38.88226 -76.11627 24068 ft 411 kts 37°
2026-05-04 13:06 38.90351 -76.09200 23728 ft 406 kts 37°
2026-05-04 13:07 38.92446 -76.06805 23322 ft 402 kts 37°
2026-05-04 13:07 38.94520 -76.04432 22915 ft 397 kts 37°
2026-05-04 13:07 38.96575 -76.02078 22501 ft 393 kts 37°
2026-05-04 13:07 38.98581 -75.99780 22103 ft 391 kts 37°
2026-05-04 13:08 39.00611 -75.97453 21713 ft 392 kts 37°
2026-05-04 13:08 39.02650 -75.95114 21329 ft 393 kts 37°
2026-05-04 13:08 39.04687 -75.92776 20942 ft 391 kts 37°
2026-05-04 13:08 39.06709 -75.90449 20555 ft 388 kts 37°
2026-05-04 13:09 39.08715 -75.88139 20179 ft 386 kts 37°
2026-05-04 13:09 39.10706 -75.85844 19799 ft 383 kts 37°
2026-05-04 13:09 39.12689 -75.83558 19422 ft 381 kts 37°
2026-05-04 13:09 39.14630 -75.81319 19068 ft 379 kts 37°
2026-05-04 13:10 39.16588 -75.79058 18707 ft 377 kts 37°
2026-05-04 13:10 39.18522 -75.76787 18368 ft 377 kts 41°
2026-05-04 13:10 39.20227 -75.74212 18405 ft 378 kts 47°
2026-05-04 13:10 39.21818 -75.71584 18387 ft 366 kts 48°
2026-05-04 13:11 39.23343 -75.69021 18371 ft 356 kts 48°
2026-05-04 13:11 39.24854 -75.66495 18262 ft 354 kts 47°
2026-05-04 13:11 39.26365 -75.63987 18003 ft 354 kts 47°
2026-05-04 13:11 39.27886 -75.61477 17633 ft 355 kts 47°
2026-05-04 13:12 39.29415 -75.58963 17203 ft 357 kts 47°
2026-05-04 13:12 39.30929 -75.56476 16784 ft 357 kts 47°
2026-05-04 13:12 39.32459 -75.53962 16345 ft 356 kts 48°
2026-05-04 13:12 39.33985 -75.51453 15900 ft 355 kts 48°
2026-05-04 13:13 39.35507 -75.48950 15468 ft 354 kts 48°
2026-05-04 13:13 39.37027 -75.46449 15050 ft 353 kts 48°
2026-05-04 13:13 39.38536 -75.43962 14630 ft 351 kts 48°
2026-05-04 13:13 39.40044 -75.41477 14220 ft 350 kts 49°
2026-05-04 13:14 39.41545 -75.39002 13807 ft 350 kts 49°
2026-05-04 13:14 39.43024 -75.36562 13344 ft 349 kts 49°
2026-05-04 13:14 39.44517 -75.34096 12906 ft 348 kts 49°
2026-05-04 13:14 39.46047 -75.31682 12541 ft 343 kts 43°
2026-05-04 13:15 39.47796 -75.29703 12505 ft 325 kts 31°
2026-05-04 13:15 39.49650 -75.28097 12512 ft 320 kts 29°
2026-05-04 13:15 39.51520 -75.26530 12355 ft 321 kts 28°
2026-05-04 13:15 39.53397 -75.24959 12093 ft 321 kts 28°
2026-05-04 13:16 39.55271 -75.23382 11698 ft 321 kts 29°
2026-05-04 13:16 39.57150 -75.21792 11130 ft 327 kts 29°
2026-05-04 13:16 39.59028 -75.20194 11010 ft 317 kts 29°
2026-05-04 13:16 39.60818 -75.18662 10902 ft 307 kts 29°
2026-05-04 13:17 39.62581 -75.17152 10711 ft 301 kts 29°
2026-05-04 13:17 39.64326 -75.15658 10382 ft 301 kts 29°
2026-05-04 13:17 39.66071 -75.14165 10071 ft 300 kts 29°
2026-05-04 13:17 39.67810 -75.12675 9759 ft 299 kts 29°
2026-05-04 13:18 39.69543 -75.11189 9418 ft 298 kts 29°
2026-05-04 13:18 39.71267 -75.09708 9137 ft 297 kts 30°
2026-05-04 13:18 39.72976 -75.08211 8794 ft 298 kts 34°
2026-05-04 13:18 39.74492 -75.06351 8447 ft 301 kts 45°
2026-05-04 13:19 39.75840 -75.04365 8343 ft 290 kts 46°
2026-05-04 13:19 39.77130 -75.02429 8208 ft 279 kts 46°
2026-05-04 13:19 39.78397 -75.00570 8153 ft 270 kts 45°
2026-05-04 13:19 39.79638 -74.98776 7994 ft 266 kts 45°
2026-05-04 13:20 39.80882 -74.96996 7723 ft 266 kts 45°
2026-05-04 13:20 39.82128 -74.95220 7512 ft 266 kts 45°
2026-05-04 13:20 39.83330 -74.93402 7240 ft 266 kts 57°
2026-05-04 13:20 39.83982 -74.91153 6989 ft 266 kts 76°
2026-05-04 13:21 39.84434 -74.88878 6901 ft 251 kts 76°
2026-05-04 13:21 39.84862 -74.86774 6694 ft 239 kts 74°
2026-05-04 13:21 39.85702 -74.84948 6221 ft 237 kts 37°
2026-05-04 13:21 39.87150 -74.84094 5786 ft 225 kts
2026-05-04 13:22 39.88638 -74.84309 5492 ft 208 kts 332°
2026-05-04 13:22 39.89769 -74.85251 5404 ft 183 kts 308°
2026-05-04 13:22 39.90498 -74.86552 5138 ft 174 kts 289°
2026-05-04 13:22 39.90816 -74.88031 4851 ft 169 kts 275°
2026-05-04 13:23 39.91033 -74.89540 4520 ft 170 kts 275°
2026-05-04 13:23 39.91248 -74.91027 4268 ft 165 kts 275°
2026-05-04 13:23 39.91455 -74.92497 4176 ft 167 kts 275°
2026-05-04 13:23 39.91663 -74.93993 4083 ft 168 kts 275°
2026-05-04 13:24 39.91874 -74.95513 3906 ft 173 kts 276°
2026-05-04 13:24 39.92102 -74.97042 3700 ft 170 kts 274°
2026-05-04 13:24 39.92043 -74.98522 3527 ft 160 kts 258°
2026-05-04 13:25 39.91669 -75.01365 3322 ft 156 kts 254°
2026-05-04 13:25 39.91422 -75.02723 3092 ft 151 kts 252°
2026-05-04 13:25 39.91174 -75.04003 2900 ft 145 kts 253°
2026-05-04 13:25 39.90930 -75.05268 2729 ft 148 kts 252°
2026-05-04 13:26 39.90671 -75.06530 2547 ft 141 kts 251°
2026-05-04 13:26 39.90424 -75.07746 2367 ft 137 kts 251°
2026-05-04 13:26 39.90187 -75.08955 2152 ft 136 kts 251°
2026-05-04 13:26 39.89954 -75.10106 1979 ft 128 kts 251°
2026-05-04 13:27 39.89738 -75.11220 1800 ft 127 kts 252°
2026-05-04 13:27 39.89499 -75.12322 1638 ft 128 kts 251°
2026-05-04 13:27 39.89284 -75.13428 1456 ft 128 kts 251°
2026-05-04 13:27 39.89069 -75.14553 1300 ft 129 kts 251°
2026-05-04 13:28 39.88800 -75.15687 1231 ft 133 kts 248°
2026-05-04 13:28 39.88541 -75.16828 998 ft 132 kts 252°
2026-05-04 13:28 39.88367 -75.18011 750 ft 133 kts 258°
2026-05-04 13:28 39.88181 -75.19165 637 ft 131 kts 251°
2026-05-04 13:29 39.87915 -75.20331 404 ft 135 kts 251°
2026-05-04 13:29 39.87671 -75.21503 216 ft 135 kts 255°
2026-05-04 13:29 39.87447 -75.22656 21 ft 124 kts 254°
2026-05-04 13:29 39.87264 -75.23590 19 ft 85 kts 255°
2026-05-04 13:30 39.87173 -75.24043 25 ft 24 kts 258°
2026-05-04 13:30 39.87161 -75.24231 25 ft 20 kts 271°
2026-05-04 13:30 39.87176 -75.24361 28 ft 11 kts 306°
2026-05-04 13:30 39.87223 -75.24344 26 ft 7 kts 65°
2026-05-04 13:31 39.87238 -75.24282 23 ft 7 kts 76°
2026-05-04 13:31 39.87251 -75.24221 24 ft 7 kts 68°
2026-05-04 13:31 39.87289 -75.24190 25 ft 7 kts
2026-05-04 13:31 39.87331 -75.24165 23 ft 7 kts 55°
2026-05-04 13:32 39.87345 -75.24107 23 ft 7 kts 74°
2026-05-04 13:32 39.87357 -75.24049 23 ft 7 kts 75°
2026-05-04 13:32 39.87370 -75.23986 22 ft 8 kts 75°
2026-05-04 13:32 39.87392 -75.23918 22 ft 8 kts 44°
2026-05-04 13:33 39.87448 -75.23910 20 ft 8 kts 340°
2026-05-04 13:33 39.87499 -75.23945 19 ft 9 kts 322°
2026-05-04 13:33 39.87536 -75.24007 20 ft 7 kts 288°
2026-05-04 13:33 39.87520 -75.24048 18 ft 5 kts 236°
2026-05-04 13:34 39.87510 -75.24069 19 ft 2 kts 237°
2026-05-04 13:34 39.87506 -75.24077 19 ft 0 kts 237°